| time (UTC) | temp F | wind direction | speed MPH | gust MPH | rain 1hr in | rain 24hr in | rain mn in | humidity % | barometer mb |
| 20260509100032 | 70 | 312 | 0.0 | 1.0 | 0.00 | 0.52 | 0.00 | 84 | 986.7 |
| 20260509094529 | 70 | 312 | 0.0 | 2.0 | 0.00 | 0.66 | 0.00 | 83 | 986.3 |
| 20260509093029 | 71 | 252 | 1.0 | 5.0 | 0.00 | 0.66 | 0.00 | 83 | 986.1 |
| 20260509091528 | 71 | 146 | 0.0 | 2.0 | 0.00 | 0.66 | 0.00 | 84 | 985.9 |
| 20260509090028 | 71 | 319 | 1.0 | 4.0 | 0.00 | 0.66 | 0.00 | 85 | 986.4 |
| 20260509084535 | 71 | 205 | 2.0 | 7.0 | 0.00 | 0.67 | 0.00 | 85 | 985.0 |
| 20260509083038 | 71 | 127 | 2.0 | 8.0 | 0.00 | 0.67 | 0.00 | 84 | 984.1 |
| 20260509081524 | 71 | 150 | 3.0 | 12.0 | 0.00 | 0.67 | 0.00 | 85 | 984.9 |
| 20260509080025 | 71 | 194 | 4.0 | 8.0 | 0.00 | 0.67 | 0.00 | 84 | 985.9 |
| 20260509074514 | 71 | 257 | 4.0 | 10.0 | 0.00 | 0.97 | 0.00 | 85 | 986.9 |
| 20260509073012 | 71 | 264 | 3.0 | 8.0 | 0.00 | 0.97 | 0.00 | 85 | 987.3 |
| 20260509071512 | 70 | 203 | 2.0 | 7.0 | 0.00 | 0.97 | 0.00 | 86 | 988.1 |
| 20260509070009 | 70 | 250 | 1.0 | 7.0 | 0.00 | 0.97 | 0.00 | 86 | 988.3 |
| 20260509064506 | 70 | 200 | 1.0 | 6.0 | 0.00 | 0.97 | 0.00 | 86 | 988.8 |
| 20260509063005 | 70 | 285 | 1.0 | 4.0 | 0.00 | 0.97 | 0.00 | 86 | 988.7 |
| 20260509061504 | 69 | 212 | 0.0 | 4.0 | 0.00 | 0.97 | 0.00 | 85 | 988.6 |
| 20260509060008 | 69 | 216 | 0.0 | 1.0 | 0.00 | 0.97 | 0.00 | 85 | 988.7 |
| 20260509054613 | 69 | 174 | 0.0 | 2.0 | 0.00 | 0.97 | 0.00 | 84 | 988.6 |
| 20260509053133 | 71 | 353 | 0.0 | 1.0 | 0.00 | 0.97 | 0.00 | 83 | 989.5 |
| 20260509051555 | 71 | 353 | 0.0 | 1.0 | 0.00 | 0.97 | 0.00 | 82 | 989.6 |
| 20260509050050 | 71 | 338 | 1.0 | 4.0 | 0.00 | 0.97 | 0.00 | 82 | 989.8 |
| 20260509044549 | 71 | 203 | 0.0 | 2.0 | 0.00 | 0.97 | 0.97 | 81 | 988.4 |
| 20260509043104 | 72 | 128 | 0.0 | 2.0 | 0.00 | 0.97 | 0.97 | 80 | 988.7 |
| 20260509041559 | 72 | 181 | 0.0 | 5.0 | 0.00 | 0.97 | 0.97 | 80 | 988.2 |
| 20260509040055 | 72 | 155 | 0.0 | 3.0 | 0.00 | 0.97 | 0.97 | 79 | 988.0 |
| 20260509034601 | 72 | 163 | 1.0 | 4.0 | 0.00 | 0.97 | 0.97 | 79 | 987.8 |
| 20260509033046 | 73 | 53 | 0.0 | 4.0 | 0.00 | 0.97 | 0.97 | 78 | 988.8 |
| 20260509031548 | 73 | 27 | 1.0 | 4.0 | 0.00 | 0.97 | 0.97 | 78 | 988.8 |
| 20260509030046 | 73 | 74 | 2.0 | 5.0 | 0.00 | 0.97 | 0.97 | 78 | 987.9 |
| 20260509024544 | 73 | 145 | 0.0 | 4.0 | 0.00 | 0.97 | 0.97 | 78 | 987.5 |
| 20260509023049 | 73 | 113 | 0.0 | 5.0 | 0.00 | 0.97 | 0.97 | 78 | 987.1 |
| 20260509021543 | 73 | 249 | 1.0 | 7.0 | 0.00 | 0.97 | 0.97 | 78 | 986.5 |
| 20260509020051 | 73 | 168 | 1.0 | 2.0 | 0.00 | 0.97 | 0.97 | 78 | 986.6 |
| 20260509014541 | 73 | 110 | 1.0 | 7.0 | 0.00 | 0.97 | 0.97 | 77 | 986.4 |
| 20260509013049 | 73 | 159 | 0.0 | 4.0 | 0.00 | 0.97 | 0.97 | 77 | 986.9 |
| 20260509011540 | 73 | 205 | 0.0 | 2.0 | 0.00 | 0.97 | 0.97 | 76 | 987.0 |
| 20260509010050 | 73 | 103 | 0.0 | 4.0 | 0.00 | 0.97 | 0.97 | 76 | 986.7 |
| 20260509004536 | 73 | 78 | 1.0 | 6.0 | 0.00 | 0.97 | 0.97 | 76 | 986.6 |
| 20260509003036 | 74 | 74 | 2.0 | 5.0 | 0.00 | 0.97 | 0.97 | 74 | 986.3 |
| 20260509001535 | 74 | 134 | 2.0 | 8.0 | 0.00 | 0.97 | 0.97 | 73 | 986.2 |
| 20260509000033 | 75 | 249 | 3.0 | 7.0 | 0.00 | 0.97 | 0.97 | 72 | 986.2 |
| 20260508234529 | 75 | 159 | 2.0 | 7.0 | 0.00 | 0.97 | 0.97 | 71 | 986.6 |
| 20260508233028 | 75 | 152 | 2.0 | 8.0 | 0.00 | 0.97 | 0.97 | 70 | 986.7 |
| 20260508231528 | 76 | 215 | 1.0 | 6.0 | 0.00 | 0.97 | 0.97 | 69 | 986.7 |
| 20260508230036 | 76 | 240 | 2.0 | 6.0 | 0.00 | 0.97 | 0.97 | 68 | 986.8 |
| 20260508224534 | 77 | 170 | 2.0 | 7.0 | 0.00 | 0.97 | 0.97 | 66 | 986.6 |
| 20260508223021 | 76 | 113 | 2.0 | 9.0 | 0.00 | 0.97 | 0.97 | 68 | 986.9 |
| 20260508221536 | 76 | 226 | 3.0 | 8.0 | 0.00 | 0.97 | 0.97 | 66 | 986.9 |
| 20260508220018 | 77 | 203 | 1.0 | 8.0 | 0.00 | 0.97 | 0.97 | 65 | 986.8 |
| 20260508214517 | 76 | 133 | 2.0 | 8.0 | 0.00 | 0.97 | 0.97 | 67 | 986.8 |
| 20260508213021 | 76 | 96 | 3.0 | 8.0 | 0.00 | 0.97 | 0.97 | 67 | 987.0 |
| 20260508211512 | 75 | 186 | 4.0 | 8.0 | 0.00 | 0.97 | 0.97 | 65 | 987.4 |
| 20260508210011 | 76 | 70 | 3.0 | 9.0 | 0.00 | 0.97 | 0.97 | 64 | 987.3 |
| 20260508204511 | 76 | 208 | 2.0 | 6.0 | 0.00 | 0.97 | 0.97 | 66 | 987.6 |
| 20260508203007 | 73 | 117 | 1.0 | 7.0 | 0.00 | 0.97 | 0.97 | 70 | 988.6 |
| 20260508201502 | 73 | 203 | 1.0 | 9.0 | 0.00 | 0.97 | 0.97 | 69 | 989.2 |
| 20260508200103 | 74 | 216 | 3.0 | 8.0 | 0.00 | 0.97 | 0.97 | 68 | 989.0 |
| 20260508194600 | 74 | 150 | 2.0 | 6.0 | 0.00 | 0.97 | 0.97 | 68 | 989.0 |
| 20260508193112 | 75 | 192 | 2.0 | 7.0 | 0.00 | 0.97 | 0.97 | 69 | 989.1 |
| 20260508191559 | 75 | 180 | 2.0 | 6.0 | 0.00 | 0.97 | 0.97 | 68 | 989.3 |
| 20260508190053 | 75 | 210 | 1.0 | 6.0 | 0.00 | 0.97 | 0.97 | 68 | 989.3 |
| 20260508184550 | 75 | 212 | 3.0 | 7.0 | 0.00 | 0.97 | 0.97 | 67 | 989.4 |
| 20260508183050 | 76 | 83 | 2.0 | 7.0 | 0.00 | 0.97 | 0.97 | 66 | 989.5 |
| 20260508181547 | 76 | 109 | 3.0 | 7.0 | 0.00 | 0.97 | 0.97 | 65 | 989.8 |
| 20260508180043 | 76 | 262 | 1.0 | 8.0 | 0.00 | 0.97 | 0.97 | 66 | 990.2 |
| 20260508174541 | 74 | 174 | 2.0 | 6.0 | 0.00 | 0.97 | 0.97 | 66 | 990.3 |
| 20260508173037 | 74 | 195 | 2.0 | 9.0 | 0.00 | 0.97 | 0.97 | 66 | 990.6 |
| 20260508171534 | 73 | 195 | 2.0 | 9.0 | 0.00 | 0.97 | 0.97 | 67 | 990.8 |
| 20260508170032 | 72 | 82 | 2.0 | 6.0 | 0.00 | 0.97 | 0.97 | 67 | 991.0 |
| 20260508164533 | 70 | 229 | 5.0 | 7.0 | 0.00 | 0.97 | 0.97 | 68 | 991.4 |
| 20260508163024 | 70 | 106 | 1.0 | 7.0 | 0.00 | 0.97 | 0.97 | 67 | 991.9 |
| 20260508161521 | 70 | 95 | 2.0 | 7.0 | 0.00 | 0.97 | 0.97 | 70 | 992.1 |
| 20260508160023 | 69 | 217 | 0.0 | 5.0 | 0.00 | 0.97 | 0.97 | 72 | 992.2 |
| 20260508154516 | 68 | 83 | 2.0 | 5.0 | 0.00 | 0.97 | 0.97 | 74 | 992.4 |
| 20260508153014 | 68 | 103 | 1.0 | 5.0 | 0.00 | 0.97 | 0.97 | 75 | 992.4 |
| 20260508151511 | 66 | 98 | 1.0 | 4.0 | 0.00 | 0.97 | 0.97 | 79 | 992.7 |
| 20260508150007 | 65 | 183 | 0.0 | 3.0 | 0.00 | 0.97 | 0.97 | 80 | 992.9 |
| 20260508144506 | 65 | 215 | 1.0 | 4.0 | 0.00 | 0.97 | 0.97 | 79 | 992.8 |
| 20260508143004 | 65 | 205 | 0.0 | 2.0 | 0.00 | 0.97 | 0.97 | 81 | 993.0 |
| 20260508141502 | 64 | 129 | 1.0 | 4.0 | 0.00 | 0.97 | 0.97 | 83 | 993.1 |
| 20260508134600 | 63 | 136 | 0.0 | 2.0 | 0.00 | 0.97 | 0.97 | 87 | 992.9 |
| 20260508133100 | 62 | 136 | 0.0 | 2.0 | 0.01 | 0.97 | 0.97 | 88 | 992.9 |
| 20260508131558 | 62 | 122 | 0.0 | 1.0 | 0.03 | 0.97 | 0.97 | 89 | 993.0 |
| 20260508130108 | 61 | 122 | 0.0 | 1.0 | 0.13 | 0.97 | 0.97 | 89 | 993.1 |
| 20260508124551 | 61 | 122 | 0.0 | 1.0 | 0.13 | 0.97 | 0.97 | 89 | 993.2 |
| 20260508123049 | 60 | 122 | 0.0 | 1.0 | 0.12 | 0.96 | 0.96 | 89 | 993.1 |
| 20260508121556 | 60 | 122 | 1.0 | 5.0 | 0.10 | 0.94 | 0.94 | 89 | 993.0 |
| 20260508120046 | 61 | 204 | 0.0 | 3.0 | 0.00 | 0.84 | 0.84 | 89 | 993.4 |
| 20260508114545 | 61 | 185 | 0.0 | 2.0 | 0.01 | 0.84 | 0.84 | 89 | 993.0 |
| 20260508113046 | 61 | 99 | 0.0 | 1.0 | 0.37 | 0.84 | 0.84 | 89 | 993.3 |
| 20260508111544 | 61 | 123 | 0.0 | 2.0 | 0.39 | 0.84 | 0.84 | 89 | 992.8 |
| 20260508110044 | 61 | 173 | 0.0 | 3.0 | 0.39 | 0.84 | 0.84 | 89 | 992.8 |
| 20260508104613 | 61 | 59 | 0.0 | 2.0 | 0.51 | 0.82 | 0.82 | 89 | 992.9 |
| 20260508103045 | 61 | 49 | 0.0 | 6.0 | 0.15 | 0.46 | 0.46 | 89 | 993.6 |
| 20260508101542 | 61 | 126 | 0.0 | 0.0 | 0.14 | 0.45 | 0.45 | 89 | 992.6 |